Wind_Speed
34 32 31 31 30 30 29 25 23 22 20 19 18 17 16 14 12 11 11 10 9 8 8 8 7 7 7 6 6 6 6 7 7 8 8 8 8 8 9 10 11 12 12 13
36 33 32 32 32 31 30 28 26 24 23 21 20 19 18 16 15 13 13 13 12 11 10 10 9 9 8 7 7 7 8 8 9 9 8 8 9 9 10 11 12 13 14 15
35 34 33 34 34 33 32 30 28 27 25 24 22 20 19 19 17 16 15 15 15 14 13 12 12 10 9 9 9 8 9 10 10 10 9 10 11 12 12 13 14 15 15 16
35 34 36 35 33 32 32 31 30 29 27 26 24 22 21 21 20 19 18 17 17 16 15 14 12 12 11 11 10 10 10 11 11 11 12 12 13 14 14 14 15 16 16 17
36 35 36 35 34 33 32 31 31 30 28 26 25 23 23 22 22 21 20 19 18 18 17 15 14 13 13 13 13 12 12 12 12 12 13 14 15 16 16 17 17 18 18 19
38 35 35 36 34 33 32 32 30 30 29 27 26 24 24 24 23 23 22 21 20 20 19 17 16 15 15 15 15 15 15 15 14 14 15 16 17 18 18 19 20 20 20 21
38 36 36 35 34 33 33 32 31 30 30 28 27 26 25 26 25 25 24 23 22 22 21 20 19 18 18 18 17 18 18 18 18 18 18 18 19 19 20 21 21 22 22 22
38 36 36 37 35 35 33 32 31 31 31 30 28 28 28 27 28 27 26 25 24 24 23 23 22 21 21 21 21 21 21 21 21 20 20 20 21 22 22 23 23 24 24 24
39 37 36 37 36 35 34 32 32 31 31 30 29 29 30 29 29 29 28 27 26 25 25 25 24 24 23 24 25 25 24 23 23 23 23 23 23 23 24 25 25 26 26 26
39 38 37 36 35 35 34 33 32 32 31 31 30 30 30 30 30 31 30 28 27 27 27 27 27 26 27 28 27 28 27 27 27 27 26 25 25 25 26 26 27 27 27 27
37 37 37 36 35 34 33 33 32 31 32 32 31 31 31 31 31 32 31 30 30 29 29 29 28 27 27 28 29 29 29 28 28 28 27 27 27 28 28 28 28 29 29 29
38 37 36 36 35 34 34 33 33 33 33 33 32 31 31 31 30 31 31 31 31 31 32 31 30 29 28 28 29 29 29 29 29 29 28 28 29 29 29 29 30 31 31 31
36 35 35 35 35 34 34 34 33 33 33 34 33 32 31 31 31 32 33 32 33 33 33 33 32 31 30 30 30 30 30 30 30 30 30 30 30 30 31 31 32 32 32 32
35 35 34 35 35 34 34 33 33 33 33 34 35 34 33 33 33 33 32 33 33 34 34 34 34 33 32 32 32 32 32 32 32 32 32 32 32 32 33 33 33 34 34 34
34 34 34 33 32 32 32 32 32 33 33 33 34 35 35 34 33 33 34 34 35 35 35 35 35 34 34 34 34 33 33 33 33 33 34 34 34 34 35 35 36 36 37 36
31 32 32 31 31 31 31 32 32 32 33 33 34 34 35 34 35 35 36 36 35 36 36 35 35 35 35 35 35 34 34 34 34 35 36 36 37 37 37 37 38 38 38 38
29 29 29 29 29 30 30 30 31 32 32 32 33 34 34 34 34 35 36 36 36 36 36 36 35 35 36 35 35 35 35 35 35 35 36 37 38 38 38 39 39 39 39 39
28 28 27 27 28 28 28 29 30 31 31 31 31 32 33 32 32 33 34 34 35 35 36 37 37 37 37 36 35 35 36 36 36 37 38 38 39 39 39 39 39 39 39 39
28 27 27 27 28 28 28 29 30 30 30 30 30 31 32 32 32 33 34 35 35 35 35 35 36 37 37 37 36 36 37 37 38 38 38 39 39 39 40 40 40 40 40 40
27 27 27 27 28 28 29 29 30 30 30 30 31 31 31 32 32 33 34 34 34 34 35 36 37 37 37 37 37 37 38 38 38 38 38 38 38 38 39 40 40 40 39 40
27 27 28 29 29 29 29 29 30 30 30 30 31 31 31 32 32 32 33 34 35 35 36 36 36 36 36 36 37 38 38 39 39 38 38 37 37 38 39 40 41 40 40 40
25 27 28 29 29 28 28 28 28 29 29 30 30 31 31 32 32 32 33 33 33 34 35 36 36 36 36 37 38 38 39 40 39 38 37 37 37 37 38 39 38 38 39 39
23 25 27 27 29 29 29 28 27 28 29 29 30 31 31 32 33 33 34 34 34 34 35 36 37 37 38 39 40 39 39 40 39 38 37 37 37 37 37 38 37 38 38 38
21 23 25 25 26 28 29 28 27 28 29 29 30 30 31 31 32 33 34 34 35 35 36 36 37 37 37 37 37 37 37 37 37 37 37 36 36 37 38 38 38 38 37 37
20 21 22 23 24 24 25 25 26 27 28 29 30 30 31 32 31 32 33 33 34 35 35 36 36 36 36 36 36 36 36 36 36 36 36 36 36 37 37 37 38 38 38 38
20 20 21 22 23 23 24 25 25 26 26 27 29 30 31 32 32 33 33 33 34 34 35 35 36 36 35 35 35 35 35 35 35 36 36 36 37 37 38 38 38 38 38 37
18 19 20 21 22 22 23 24 25 25 26 27 28 29 30 31 31 32 33 33 33 33 34 34 34 33 33 33 33 33 34 34 35 35 35 35 36 36 36 36 36 36 36 36
Wind_Direction
220 222 225 225 224 225 225 225 229 233 235 235 237 240 243 244 245 249 254 256 255 258 259 263 271 279 282 286 289 292 298 305 309 311 310 314 319 320 322 326 327 328 326 325
221 222 225 226 225 226 227 228 230 232 235 236 236 237 239 240 243 248 253 256 257 258 260 262 266 272 279 286 292 289 291 298 305 306 307 314 317 322 323 322 322 322 323 321
221 221 224 226 225 227 228 230 231 232 233 236 237 238 236 235 238 244 251 255 257 260 263 265 265 272 278 280 290 293 295 296 301 300 304 309 313 318 320 320 320 320 321 322
221 223 225 226 227 228 230 231 230 231 233 235 237 238 235 234 237 241 247 253 257 260 263 266 266 271 276 279 283 290 294 296 297 297 299 302 306 310 311 313 314 315 316 318
222 226 229 228 227 227 229 230 230 231 231 233 234 235 236 235 236 240 247 253 256 257 260 264 267 270 273 277 281 286 290 293 294 296 298 299 301 303 306 308 310 312 313 313
222 224 229 230 229 229 230 230 229 230 230 230 231 234 236 236 238 241 248 253 255 256 257 262 264 268 271 275 278 282 285 287 292 295 296 298 299 300 301 304 307 309 310 311
224 226 230 231 230 228 229 229 229 231 230 230 231 232 235 238 239 242 247 251 254 256 258 260 263 266 269 271 273 276 280 283 286 290 292 294 297 298 298 300 304 306 308 309
224 226 231 231 231 229 230 231 232 232 233 233 234 234 236 238 240 242 246 250 252 255 257 259 261 264 268 271 272 273 276 280 282 285 287 290 293 295 295 298 301 302 304 305
224 227 231 232 233 234 233 233 233 233 234 236 237 238 239 241 243 244 247 251 253 256 258 259 261 263 265 268 269 270 274 277 280 282 284 287 290 293 294 295 298 300 301 303
226 228 231 233 233 233 233 233 234 234 237 239 240 240 241 243 245 245 246 249 252 254 256 258 260 262 264 265 269 271 275 278 280 281 282 285 287 290 291 292 295 298 300 302
227 229 231 233 234 234 233 234 235 237 237 238 240 241 242 245 247 248 247 249 252 254 256 258 259 261 264 265 267 270 274 275 279 281 282 283 286 289 288 289 292 295 297 299
226 228 230 232 234 234 234 235 237 238 238 239 240 242 242 243 245 247 246 248 251 254 256 258 260 263 266 268 269 271 274 273 276 278 279 283 285 285 287 289 291 293 294 297
227 229 231 231 233 234 235 236 237 238 239 238 239 241 243 244 246 246 246 248 251 254 256 259 262 264 266 267 269 271 273 274 275 277 279 280 282 284 286 288 290 291 293 295
225 227 229 230 232 234 234 236 237 239 239 240 240 242 245 246 246 248 249 248 251 253 256 258 261 262 264 266 269 269 272 273 274 276 278 279 281 284 286 288 289 290 292 294
225 227 229 230 232 232 233 234 236 237 238 240 241 242 243 244 246 247 249 251 252 253 256 259 260 260 262 265 267 268 270 271 272 274 277 279 281 283 284 286 287 289 291 293
225 226 228 230 230 231 233 235 235 235 237 239 240 241 243 245 247 248 250 252 253 254 256 258 258 260 263 265 266 268 270 271 272 274 276 278 280 282 283 285 285 286 288 289
225 225 226 228 230 232 234 235 235 236 237 238 240 242 245 247 248 250 251 253 254 254 254 256 259 261 262 265 266 268 270 271 272 274 276 279 280 282 283 284 284 285 286 287
225 227 229 230 231 232 234 235 234 233 233 236 239 242 244 246 249 251 253 254 255 256 257 257 258 261 264 267 266 266 268 270 272 274 276 279 281 281 282 283 284 284 285 285
226 229 230 231 231 232 234 234 234 235 236 238 240 243 244 247 250 254 257 257 258 259 258 258 260 263 265 266 266 267 269 271 273 274 276 277 279 280 282 285 286 285 284 285
227 228 229 230 232 235 236 236 237 239 240 243 245 247 249 251 254 257 257 257 258 260 261 263 265 267 267 266 268 269 270 271 273 274 277 279 281 283 283 285 287 285 285 285
230 230 231 232 234 236 238 240 240 240 242 243 245 247 251 254 256 257 257 258 260 261 263 265 267 268 268 268 269 270 272 275 275 276 278 280 282 283 283 284 285 285 284 285
228 229 230 232 234 236 239 241 241 241 243 245 247 251 254 256 258 259 260 261 262 263 264 266 269 269 269 269 271 272 273 276 277 279 280 281 283 284 283 284 284 284 284 284
231 233 233 234 236 237 239 243 244 244 246 248 251 253 256 259 260 260 260 261 265 266 266 267 270 271 271 273 273 273 274 275 276 278 280 281 283 283 283 283 283 285 286 286
236 237 234 236 239 240 243 246 247 247 247 249 252 254 257 260 261 263 264 265 266 267 269 271 271 272 273 274 274 274 275 276 277 278 279 280 281 283 283 284 284 286 287 288
236 234 235 238 240 241 243 246 248 249 251 252 253 255 258 260 263 265 267 267 268 269 270 271 272 273 274 274 275 277 278 278 277 278 279 281 282 283 284 285 286 287 288 289
233 233 234 237 238 241 243 247 250 253 255 257 258 258 260 263 265 266 266 268 268 271 272 272 272 274 274 275 276 276 278 279 279 280 281 283 284 284 285 285 286 287 288 288
236 233 234 236 240 244 247 250 253 254 256 258 260 262 262 264 266 267 269 271 271 271 271 272 274 274 275 275 276 277 277 279 279 280 281 283 284 286 286 286 286 287 288 287
Height
5855 5860 5864 5868 5872 5876 5880 5885 5890 5893 5894 5896 5897 5899 5900 5901 5902 5904 5904 5905 5906 5906 5905 5905 5905 5905 5904 5903 5902 5901 5901 5900 5899 5898 5897 5895 5894 5893 5891 5890 5888 5886 5885 5883
5848 5853 5857 5861 5866 5870 5874 5878 5883 5886 5889 5891 5892 5894 5896 5897 5898 5900 5901 5902 5902 5903 5903 5903 5903 5902 5902 5901 5901 5900 5899 5898 5897 5896 5895 5894 5892 5891 5889 5887 5886 5884 5882 5880
5841 5846 5850 5853 5859 5863 5868 5872 5876 5880 5884 5885 5887 5889 5891 5893 5894 5896 5897 5898 5898 5899 5900 5900 5899 5899 5899 5899 5898 5897 5897 5896 5895 5894 5893 5892 5890 5889 5887 5885 5883 5881 5879 5877
5835 5839 5842 5849 5853 5857 5861 5865 5869 5873 5876 5879 5881 5884 5885 5888 5890 5891 5892 5894 5894 5895 5896 5896 5896 5896 5896 5895 5895 5894 5894 5893 5892 5891 5890 5889 5887 5886 5884 5882 5880 5878 5876 5874
5827 5831 5836 5842 5845 5850 5854 5858 5862 5866 5869 5873 5875 5877 5880 5882 5884 5886 5888 5889 5890 5891 5891 5892 5892 5892 5892 5892 5892 5891 5890 5889 5888 5887 5886 5885 5884 5882 5880 5879 5877 5875 5873 5870
5819 5825 5829 5835 5839 5843 5848 5851 5856 5859 5863 5866 5869 5872 5875 5876 5878 5881 5882 5884 5885 5886 5886 5887 5887 5888 5888 5888 5888 5887 5887 5886 5885 5884 5883 5881 5880 5878 5876 5875 5873 5870 5868 5866
5811 5816 5822 5827 5831 5836 5841 5846 5849 5852 5856 5859 5862 5866 5868 5870 5872 5874 5876 5878 5879 5880 5881 5882 5883 5883 5883 5883 5883 5883 5882 5881 5880 5879 5878 5877 5875 5874 5872 5870 5868 5866 5863 5861
5804 5810 5816 5819 5823 5829 5833 5838 5841 5845 5849 5852 5855 5858 5861 5863 5866 5867 5869 5871 5873 5874 5875 5876 5877 5877 5878 5878 5878 5877 5876 5875 5875 5874 5873 5871 5870 5869 5867 5865 5863 5860 5858 5855
5797 5803 5807 5811 5816 5821 5826 5830 5833 5837 5841 5844 5848 5851 5854 5856 5859 5861 5863 5864 5866 5867 5868 5869 5870 5871 5871 5871 5870 5870 5869 5869 5868 5868 5866 5865 5864 5862 5861 5859 5857 5854 5852 5849
5788 5794 5798 5803 5808 5813 5817 5821 5825 5829 5833 5836 5840 5843 5846 5849 5851 5853 5855 5857 5858 5860 5861 5862 5863 5863 5864 5864 5863 5863 5862 5862 5861 5860 5859 5858 5857 5856 5854 5852 5850 5848 5845 5843
5780 5786 5791 5795 5800 5805 5809 5813 5817 5821 5825 5828 5832 5835 5838 5840 5843 5845 5846 5848 5850 5852 5853 5854 5855 5856 5856 5856 5856 5856 5855 5854 5853 5853 5852 5851 5850 5848 5847 5845 5843 5841 5838 5836
5772 5778 5783 5788 5792 5797 5801 5805 5809 5813 5816 5820 5823 5827 5829 5832 5834 5836 5838 5840 5842 5843 5845 5846 5847 5848 5848 5848 5848 5848 5847 5846 5846 5845 5844 5843 5842 5841 5839 5837 5835 5833 5830 5828
5765 5770 5775 5780 5784 5788 5793 5797 5800 5804 5808 5812 5815 5818 5821 5824 5826 5827 5829 5831 5833 5835 5836 5837 5838 5839 5840 5840 5839 5839 5839 5838 5838 5837 5836 5835 5834 5833 5831 5829 5827 5824 5822 5819
5757 5762 5767 5771 5776 5780 5784 5788 5792 5796 5799 5803 5806 5810 5813 5815 5817 5818 5820 5822 5824 5825 5826 5827 5828 5829 5830 5831 5831 5830 5830 5830 5829 5829 5828 5826 5825 5824 5822 5820 5818 5815 5813 5811
5749 5754 5759 5763 5768 5772 5776 5780 5783 5787 5791 5794 5797 5800 5803 5806 5808 5810 5811 5813 5814 5815 5816 5817 5818 5820 5821 5821 5821 5821 5821 5821 5820 5820 5819 5818 5816 5814 5812 5810 5808 5806 5803 5801
5742 5747 5751 5755 5760 5764 5768 5771 5775 5778 5782 5785 5788 5791 5794 5796 5798 5800 5802 5803 5804 5806 5807 5807 5809 5810 5811 5811 5811 5811 5811 5811 5811 5810 5809 5808 5806 5804 5802 5800 5798 5795 5793 5791
5736 5740 5744 5748 5752 5756 5759 5762 5766 5770 5773 5776 5779 5782 5785 5787 5789 5790 5792 5793 5794 5796 5797 5798 5799 5800 5800 5800 5801 5801 5801 5801 5800 5799 5798 5797 5795 5793 5791 5789 5787 5785 5782 5780
5730 5734 5738 5741 5745 5748 5752 5755 5758 5761 5765 5768 5771 5773 5776 5777 5779 5781 5782 5783 5785 5785 5786 5787 5788 5789 5789 5788 5789 5790 5790 5790 5789 5788 5787 5785 5784 5782 5780 5778 5775 5773 5771 5769
5724 5727 5731 5734 5738 5741 5744 5747 5750 5754 5757 5760 5762 5765 5766 5768 5770 5772 5773 5774 5775 5776 5777 5777 5778 5778 5778 5778 5778 5779 5779 5779 5778 5777 5775 5774 5772 5770 5768 5766 5764 5761 5759 5757
5717 5721 5724 5728 5731 5734 5737 5740 5743 5746 5749 5752 5754 5756 5758 5760 5761 5762 5763 5764 5765 5766 5767 5767 5768 5768 5768 5768 5768 5768 5768 5767 5766 5765 5763 5762 5760 5758 5756 5754 5751 5749 5747 5745
5711 5714 5717 5720 5724 5727 5730 5732 5735 5739 5741 5744 5746 5748 5749 5751 5752 5753 5754 5755 5756 5756 5756 5756 5757 5757 5757 5757 5757 5757 5756 5755 5754 5753 5751 5750 5748 5746 5744 5742 5740 5737 5735 5732
5703 5706 5709 5713 5717 5720 5723 5725 5727 5730 5733 5735 5737 5739 5741 5742 5743 5744 5744 5745 5745 5746 5745 5746 5746 5746 5747 5747 5746 5745 5744 5743 5742 5741 5740 5738 5736 5734 5732 5730 5727 5725 5722 5720
5697 5699 5702 5705 5709 5712 5715 5717 5720 5722 5725 5727 5729 5730 5732 5732 5733 5734 5735 5735 5735 5735 5736 5736 5736 5736 5736 5736 5735 5734 5733 5732 5731 5730 5728 5726 5725 5723 5721 5719 5716 5714 5711 5709
5691 5693 5695 5698 5701 5704 5707 5709 5711 5714 5716 5718 5719 5721 5722 5723 5723 5724 5724 5725 5725 5726 5726 5726 5726 5726 5725 5724 5723 5722 5721 5720 5719 5718 5716 5714 5713 5711 5709 5707 5705 5703 5700 5697
5685 5687 5689 5692 5694 5697 5699 5701 5703 5705 5707 5709 5710 5711 5712 5713 5713 5714 5714 5715 5715 5715 5715 5715 5715 5714 5714 5713 5712 5711 5710 5708 5707 5706 5704 5703 5701 5699 5697 5695 5693 5691 5688 5686
5680 5681 5683 5685 5688 5690 5692 5694 5695 5697 5698 5700 5701 5702 5702 5703 5704 5704 5704 5705 5705 5705 5705 5704 5704 5703 5703 5702 5701 5700 5699 5698 5697 5695 5693 5691 5689 5687 5685 5683 5681 5679 5676 5674
5675 5676 5678 5680 5682 5684 5685 5687 5688 5690 5691 5692 5692 5693 5693 5694 5694 5694 5694 5694 5694 5694 5694 5693 5693 5692 5692 5691 5690 5689 5688 5686 5685 5683 5681 5679 5677 5675 5673 5671 5669 5667 5665 5663